N180GS LIEE-LIRN

Flight info

Callsign N180GS
Flight time 1h 31m
Altitude 7000
Route CAR ISKIA
Aircraft BE36/L-VGD/C

Departure

Time 2026-05-09 00:36
Airport Cagliari Elmas Airport (LIEE)

Arrival

Time 2026-05-09 02:08
Airport Naples International Airport (LIRN)
Time Latitude Longitude Altitude Speed Heading
2026-05-09 00:07 39.24903 9.06271 12 ft 0 kts 330°
2026-05-09 00:17 39.24904 9.06271 12 ft 0 kts 330°
2026-05-09 00:22 39.24908 9.06268 12 ft 3 kts 332°
2026-05-09 00:22 39.24905 9.06233 12 ft 9 kts 243°
2026-05-09 00:23 39.24956 9.06141 12 ft 18 kts 320°
2026-05-09 00:23 39.25024 9.06046 12 ft 16 kts 308°
2026-05-09 00:23 39.25124 9.05920 13 ft 24 kts 315°
2026-05-09 00:23 39.25244 9.05776 13 ft 18 kts 321°
2026-05-09 00:24 39.25333 9.05671 13 ft 16 kts 315°
2026-05-09 00:24 39.25394 9.05558 13 ft 19 kts 279°
2026-05-09 00:24 39.25419 9.05428 13 ft 18 kts 293°
2026-05-09 00:24 39.25517 9.05276 14 ft 26 kts 318°
2026-05-09 00:25 39.25612 9.05166 14 ft 28 kts 319°
2026-05-09 00:25 39.25761 9.04992 14 ft 30 kts 317°
2026-05-09 00:25 39.25898 9.04832 15 ft 26 kts 318°
2026-05-09 00:25 39.26015 9.04695 15 ft 10 kts 320°
2026-05-09 00:26 39.26108 9.04584 15 ft 11 kts 305°
2026-05-09 00:26 39.26125 9.04524 15 ft 10 kts 274°
2026-05-09 00:26 39.26127 9.04485 15 ft 1 kts 276°
2026-05-09 00:26 39.26127 9.04484 15 ft 0 kts 276°
2026-05-09 00:34 39.26128 9.04471 15 ft 6 kts 270°
2026-05-09 00:34 39.26104 9.04399 15 ft 6 kts 224°
2026-05-09 00:35 39.26095 9.04390 14 ft 6 kts 214°
2026-05-09 00:35 39.26025 9.04416 14 ft 16 kts 140°
2026-05-09 00:35 39.25935 9.04518 14 ft 28 kts 137°
2026-05-09 00:35 39.25647 9.04850 16 ft 83 kts 138°
2026-05-09 00:36 39.25159 9.05433 160 ft 105 kts 136°
2026-05-09 00:36 39.24608 9.06098 448 ft 112 kts 140°
2026-05-09 00:36 39.24020 9.06802 707 ft 119 kts 137°
2026-05-09 00:36 39.23376 9.07548 972 ft 129 kts 137°
2026-05-09 00:37 39.22693 9.08337 1241 ft 134 kts 137°
2026-05-09 00:37 39.22001 9.09149 1497 ft 138 kts 137°
2026-05-09 00:37 39.21285 9.09980 1767 ft 139 kts 137°
2026-05-09 00:37 39.20793 9.11020 2015 ft 137 kts 108°
2026-05-09 00:38 39.20496 9.12196 2269 ft 139 kts 107°
2026-05-09 00:38 39.20216 9.13387 2522 ft 139 kts 107°
2026-05-09 00:38 39.19933 9.14580 2771 ft 139 kts 107°
2026-05-09 00:38 39.19648 9.15771 3024 ft 139 kts 108°
2026-05-09 00:39 39.19358 9.16973 3210 ft 143 kts 108°
2026-05-09 00:39 39.19061 9.18206 3389 ft 145 kts 108°
2026-05-09 00:39 39.18758 9.19460 3563 ft 148 kts 108°
2026-05-09 00:39 39.18452 9.20725 3737 ft 148 kts 108°
2026-05-09 00:40 39.18143 9.22005 3914 ft 150 kts 108°
2026-05-09 00:40 39.17830 9.23297 4091 ft 152 kts 108°
2026-05-09 00:40 39.17515 9.24600 4264 ft 153 kts 108°
2026-05-09 00:41 39.16877 9.27234 4619 ft 155 kts 108°
2026-05-09 00:41 39.16555 9.28560 4797 ft 155 kts 108°
2026-05-09 00:41 39.16232 9.29895 4971 ft 156 kts 108°
2026-05-09 00:41 39.15911 9.31218 5139 ft 157 kts 108°
2026-05-09 00:42 39.15584 9.32561 5309 ft 157 kts 108°
2026-05-09 00:42 39.15256 9.33914 5484 ft 158 kts 109°
2026-05-09 00:42 39.14927 9.35270 5658 ft 159 kts 109°
2026-05-09 00:42 39.14594 9.36637 5832 ft 160 kts 109°
2026-05-09 00:43 39.14259 9.38010 6012 ft 161 kts 109°
2026-05-09 00:43 39.13924 9.39389 6189 ft 162 kts 109°
2026-05-09 00:43 39.13586 9.40774 6365 ft 162 kts 109°
2026-05-09 00:43 39.13246 9.42168 6518 ft 164 kts 109°
2026-05-09 00:44 39.12900 9.43587 6641 ft 168 kts 109°
2026-05-09 00:44 39.12547 9.45033 6759 ft 169 kts 109°
2026-05-09 00:44 39.12192 9.46484 6880 ft 171 kts 109°
2026-05-09 00:44 39.11835 9.47947 6999 ft 172 kts 109°
2026-05-09 00:45 39.11467 9.49449 7008 ft 180 kts 108°
2026-05-09 00:45 39.11377 9.51062 7009 ft 184 kts 78°
2026-05-09 00:45 39.11815 9.52583 7014 ft 184 kts 59°
2026-05-09 00:45 39.12410 9.54083 7021 ft 187 kts 60°
2026-05-09 00:46 39.12995 9.55593 7019 ft 189 kts 60°
2026-05-09 00:46 39.13585 9.57119 7020 ft 191 kts 60°
2026-05-09 00:46 39.14167 9.58627 7019 ft 190 kts 60°
2026-05-09 00:46 39.14759 9.60154 7020 ft 191 kts 60°
2026-05-09 00:47 39.15354 9.61694 7022 ft 192 kts 60°
2026-05-09 00:47 39.15950 9.63237 7021 ft 193 kts 60°
2026-05-09 00:47 39.16549 9.64786 7022 ft 193 kts 60°
2026-05-09 00:47 39.17148 9.66341 7023 ft 193 kts 60°
2026-05-09 00:48 39.17741 9.67875 7022 ft 193 kts 60°
2026-05-09 00:48 39.18339 9.69429 7018 ft 193 kts 60°
2026-05-09 00:48 39.18936 9.70977 7019 ft 193 kts 60°
2026-05-09 00:48 39.19532 9.72524 7019 ft 193 kts 60°
2026-05-09 00:49 39.20128 9.74072 7016 ft 193 kts 60°
2026-05-09 00:49 39.20724 9.75621 7016 ft 193 kts 60°
2026-05-09 00:49 39.21319 9.77168 7016 ft 193 kts 60°
2026-05-09 00:49 39.21913 9.78715 7016 ft 192 kts 60°
2026-05-09 00:50 39.22507 9.80259 7016 ft 192 kts 61°
2026-05-09 00:50 39.23100 9.81804 7016 ft 192 kts 60°
2026-05-09 00:50 39.23693 9.83351 7016 ft 192 kts 61°
2026-05-09 00:50 39.24286 9.84895 7016 ft 192 kts 60°
2026-05-09 00:51 39.24878 9.86442 7013 ft 192 kts 60°
2026-05-09 00:51 39.25470 9.87984 7013 ft 192 kts 60°
2026-05-09 00:51 39.26062 9.89529 7013 ft 192 kts 60°
2026-05-09 00:51 39.26651 9.91072 7013 ft 192 kts 60°
2026-05-09 00:52 39.27235 9.92597 7013 ft 192 kts 60°
2026-05-09 00:52 39.27824 9.94137 7013 ft 192 kts 60°
2026-05-09 00:52 39.28415 9.95683 7013 ft 192 kts 60°
2026-05-09 00:52 39.29006 9.97229 7013 ft 192 kts 60°
2026-05-09 00:53 39.29594 9.98772 7019 ft 192 kts 60°
2026-05-09 00:53 39.30185 10.00318 7019 ft 192 kts 60°
2026-05-09 00:53 39.30774 10.01863 7019 ft 192 kts 60°
2026-05-09 00:53 39.31363 10.03408 7019 ft 192 kts 60°
2026-05-09 00:54 39.31943 10.04932 7016 ft 192 kts 60°
2026-05-09 00:54 39.32539 10.06495 7016 ft 192 kts 60°
2026-05-09 00:54 39.33121 10.08024 7016 ft 192 kts 60°
2026-05-09 00:54 39.33708 10.09568 7016 ft 192 kts 60°
2026-05-09 00:55 39.34296 10.11115 7016 ft 192 kts 60°
2026-05-09 00:55 39.34884 10.12662 7016 ft 192 kts 60°
2026-05-09 00:55 39.35473 10.14211 7016 ft 192 kts 60°
2026-05-09 00:55 39.36061 10.15761 7016 ft 192 kts 60°
2026-05-09 00:56 39.36650 10.17313 7015 ft 192 kts 61°
2026-05-09 00:56 39.37236 10.18858 7015 ft 191 kts 61°
2026-05-09 00:56 39.37822 10.20403 7016 ft 191 kts 61°
2026-05-09 00:56 39.38406 10.21946 7016 ft 191 kts 61°
2026-05-09 00:57 39.38989 10.23484 7016 ft 190 kts 60°
2026-05-09 00:57 39.39569 10.25018 7016 ft 190 kts 60°
2026-05-09 00:57 39.40149 10.26551 7015 ft 190 kts 60°
2026-05-09 00:57 39.40729 10.28083 7013 ft 190 kts 60°
2026-05-09 00:58 39.41308 10.29617 7013 ft 190 kts 61°
2026-05-09 00:58 39.41887 10.31149 7013 ft 190 kts 60°
2026-05-09 00:58 39.42466 10.32683 7013 ft 189 kts 60°
2026-05-09 00:58 39.43036 10.34195 7013 ft 189 kts 61°
2026-05-09 00:59 39.43615 10.35729 7012 ft 189 kts 60°
2026-05-09 00:59 39.44191 10.37259 7012 ft 189 kts 60°
2026-05-09 00:59 39.44768 10.38789 7013 ft 189 kts 61°
2026-05-09 00:59 39.45346 10.40323 7012 ft 189 kts 60°
2026-05-09 01:00 39.45922 10.41855 7007 ft 190 kts 60°
2026-05-09 01:00 39.46499 10.43389 7010 ft 190 kts 60°
2026-05-09 01:00 39.47077 10.44926 7010 ft 190 kts 60°
2026-05-09 01:00 39.47653 10.46461 7010 ft 190 kts 61°
2026-05-09 01:01 39.48232 10.48000 7013 ft 190 kts 60°
2026-05-09 01:01 39.48810 10.49540 7012 ft 190 kts 61°
2026-05-09 01:01 39.49378 10.51056 7012 ft 189 kts 61°
2026-05-09 01:01 39.49953 10.52588 7010 ft 189 kts 61°
2026-05-09 01:02 39.50528 10.54123 7010 ft 189 kts 61°
2026-05-09 01:02 39.51104 10.55661 7012 ft 189 kts 61°
2026-05-09 01:02 39.51679 10.57196 7011 ft 189 kts 61°
2026-05-09 01:02 39.52254 10.58733 7014 ft 189 kts 61°
2026-05-09 01:03 39.52829 10.60268 7015 ft 189 kts 61°
2026-05-09 01:03 39.53403 10.61805 7015 ft 190 kts 61°
2026-05-09 01:03 39.53976 10.63340 7014 ft 190 kts 61°
2026-05-09 01:03 39.54553 10.64881 7015 ft 189 kts 62°
2026-05-09 01:04 39.55118 10.66399 7017 ft 189 kts 62°
2026-05-09 01:04 39.55689 10.67929 7015 ft 188 kts 62°
2026-05-09 01:04 39.56259 10.69455 7015 ft 188 kts 62°
2026-05-09 01:04 39.56826 10.70978 7014 ft 188 kts 62°
2026-05-09 01:05 39.57393 10.72500 7013 ft 188 kts 62°
2026-05-09 01:05 39.57960 10.74024 7012 ft 188 kts 62°
2026-05-09 01:05 39.59093 10.77070 7012 ft 187 kts 62°
2026-05-09 01:06 39.59659 10.78592 7012 ft 187 kts 62°
2026-05-09 01:06 39.60224 10.80114 7011 ft 187 kts 62°
2026-05-09 01:06 39.60789 10.81636 7013 ft 187 kts 62°
2026-05-09 01:06 39.61356 10.83157 7013 ft 187 kts 62°
2026-05-09 01:07 39.61919 10.84681 7012 ft 187 kts 62°
2026-05-09 01:07 39.62485 10.86207 7014 ft 188 kts 62°
2026-05-09 01:07 39.63051 10.87732 7014 ft 187 kts 62°
2026-05-09 01:07 39.63609 10.89239 7014 ft 187 kts 62°
2026-05-09 01:08 39.64173 10.90763 7011 ft 187 kts 62°
2026-05-09 01:08 39.64736 10.92286 7009 ft 187 kts 62°
2026-05-09 01:08 39.65301 10.93814 7009 ft 187 kts 62°
2026-05-09 01:08 39.65865 10.95338 7012 ft 187 kts 62°
2026-05-09 01:09 39.66430 10.96868 7014 ft 188 kts 62°
2026-05-09 01:09 39.66994 10.98395 7012 ft 188 kts 62°
2026-05-09 01:09 39.67558 10.99924 7016 ft 188 kts 62°
2026-05-09 01:09 39.68121 11.01450 7012 ft 187 kts 62°
2026-05-09 01:10 39.68678 11.02959 7011 ft 187 kts 62°
2026-05-09 01:10 39.69241 11.04488 7014 ft 187 kts 62°
2026-05-09 01:10 39.69803 11.06015 7012 ft 187 kts 62°
2026-05-09 01:10 39.70364 11.07537 7013 ft 187 kts 62°
2026-05-09 01:11 39.70923 11.09061 7010 ft 187 kts 62°
2026-05-09 01:11 39.71485 11.10586 7011 ft 187 kts 62°
2026-05-09 01:11 39.72045 11.12110 7010 ft 187 kts 62°
2026-05-09 01:11 39.72603 11.13630 7011 ft 186 kts 62°
2026-05-09 01:12 39.73160 11.15148 7011 ft 186 kts 62°
2026-05-09 01:12 39.73529 11.16153 7012 ft 186 kts 62°
2026-05-09 01:12 39.74084 11.17667 7012 ft 186 kts 62°
2026-05-09 01:12 39.74640 11.19181 7011 ft 186 kts 62°
2026-05-09 01:13 39.75377 11.21194 7013 ft 186 kts 62°
2026-05-09 01:13 39.75752 11.22219 7014 ft 186 kts 63°
2026-05-09 01:13 39.76307 11.23734 7013 ft 186 kts 62°
2026-05-09 01:13 39.76861 11.25251 7015 ft 186 kts 62°
2026-05-09 01:14 39.77418 11.26771 7016 ft 186 kts 62°
2026-05-09 01:14 39.77973 11.28290 7013 ft 186 kts 63°
2026-05-09 01:14 39.78520 11.29789 7016 ft 186 kts 63°
2026-05-09 01:14 39.79077 11.31311 7007 ft 186 kts 63°
2026-05-09 01:15 39.79629 11.32826 7011 ft 185 kts 63°
2026-05-09 01:15 39.80180 11.34337 7010 ft 185 kts 63°
2026-05-09 01:15 39.80731 11.35848 7012 ft 185 kts 63°
2026-05-09 01:15 39.81283 11.37364 7011 ft 185 kts 63°
2026-05-09 01:16 39.81833 11.38874 7007 ft 185 kts 63°
2026-05-09 01:16 39.82383 11.40383 7009 ft 184 kts 63°
2026-05-09 01:16 39.82932 11.41893 7009 ft 184 kts 63°
2026-05-09 01:17 39.84027 11.44907 7005 ft 184 kts 63°
2026-05-09 01:17 39.84575 11.46413 7005 ft 184 kts 63°
2026-05-09 01:17 39.85115 11.47902 7007 ft 184 kts 63°
2026-05-09 01:17 39.85663 11.49414 7004 ft 185 kts 63°
2026-05-09 01:18 39.86212 11.50926 7009 ft 185 kts 63°
2026-05-09 01:18 39.86761 11.52440 7009 ft 185 kts 63°
2026-05-09 01:18 39.87311 11.53957 7009 ft 185 kts 63°
2026-05-09 01:18 39.87859 11.55473 7010 ft 185 kts 63°
2026-05-09 01:19 39.88408 11.56988 7008 ft 185 kts 63°
2026-05-09 01:19 39.88956 11.58501 7009 ft 184 kts 63°
2026-05-09 01:19 39.89502 11.60014 7011 ft 184 kts 63°
2026-05-09 01:19 39.90048 11.61523 7011 ft 184 kts 63°
2026-05-09 01:20 39.90583 11.63007 7011 ft 184 kts 63°
2026-05-09 01:20 39.91127 11.64512 7011 ft 183 kts 64°
2026-05-09 01:20 39.91669 11.66014 7009 ft 183 kts 63°
2026-05-09 01:20 39.92211 11.67519 7009 ft 184 kts 63°
2026-05-09 01:21 39.92755 11.69027 7009 ft 183 kts 63°
2026-05-09 01:21 39.93297 11.70532 7008 ft 183 kts 63°
2026-05-09 01:21 39.93836 11.72030 7010 ft 182 kts 63°
2026-05-09 01:21 39.94374 11.73524 7007 ft 182 kts 63°
2026-05-09 01:22 39.94912 11.75018 7010 ft 182 kts 63°
2026-05-09 01:22 39.95450 11.76514 7007 ft 182 kts 63°
2026-05-09 01:22 39.95986 11.78008 7009 ft 182 kts 63°
2026-05-09 01:22 39.96522 11.79502 7006 ft 182 kts 63°
2026-05-09 01:23 39.97058 11.80994 7008 ft 182 kts 63°
2026-05-09 01:23 39.97587 11.82469 7010 ft 182 kts 63°
2026-05-09 01:23 39.98122 11.83961 7008 ft 182 kts 63°
2026-05-09 01:23 39.98657 11.85454 7010 ft 182 kts 63°
2026-05-09 01:24 39.99194 11.86952 7007 ft 182 kts 63°
2026-05-09 01:24 39.99730 11.88449 7010 ft 182 kts 63°
2026-05-09 01:24 40.00265 11.89945 7007 ft 182 kts 63°
2026-05-09 01:24 40.00800 11.91439 7009 ft 182 kts 63°
2026-05-09 01:25 40.01334 11.92935 7004 ft 182 kts 63°
2026-05-09 01:25 40.01870 11.94433 7004 ft 182 kts 63°
2026-05-09 01:25 40.02405 11.95930 7004 ft 182 kts 63°
2026-05-09 01:25 40.02941 11.97434 7002 ft 182 kts 63°
2026-05-09 01:26 40.03476 11.98932 7005 ft 182 kts 63°
2026-05-09 01:26 40.04005 12.00415 7008 ft 182 kts 63°
2026-05-09 01:26 40.04539 12.01914 7003 ft 182 kts 63°
2026-05-09 01:26 40.05072 12.03413 7003 ft 182 kts 63°
2026-05-09 01:27 40.05607 12.04915 7002 ft 182 kts 63°
2026-05-09 01:27 40.06140 12.06412 7002 ft 181 kts 63°
2026-05-09 01:27 40.06672 12.07908 7006 ft 181 kts 63°
2026-05-09 01:27 40.07202 12.09398 7000 ft 181 kts 63°
2026-05-09 01:28 40.07730 12.10885 7000 ft 181 kts 63°
2026-05-09 01:28 40.08260 12.12378 7001 ft 181 kts 63°
2026-05-09 01:28 40.08788 12.13866 7003 ft 181 kts 63°
2026-05-09 01:28 40.09318 12.15359 7002 ft 180 kts 63°
2026-05-09 01:29 40.09838 12.16829 7002 ft 180 kts 63°
2026-05-09 01:29 40.10365 12.18313 6995 ft 180 kts 63°
2026-05-09 01:29 40.10890 12.19796 6998 ft 180 kts 63°
2026-05-09 01:29 40.11415 12.21281 6997 ft 180 kts 63°
2026-05-09 01:30 40.11940 12.22763 6999 ft 180 kts 63°
2026-05-09 01:30 40.12465 12.24248 7001 ft 180 kts 63°
2026-05-09 01:30 40.12989 12.25733 7003 ft 180 kts 63°
2026-05-09 01:30 40.13513 12.27215 7000 ft 180 kts 63°
2026-05-09 01:31 40.14038 12.28702 7004 ft 180 kts 63°
2026-05-09 01:31 40.14564 12.30192 7001 ft 180 kts 63°
2026-05-09 01:31 40.15089 12.31679 7004 ft 180 kts 63°
2026-05-09 01:31 40.15607 12.33149 7004 ft 180 kts 63°
2026-05-09 01:32 40.16131 12.34637 6999 ft 180 kts 63°
2026-05-09 01:32 40.16656 12.36127 6997 ft 180 kts 63°
2026-05-09 01:32 40.17179 12.37612 7001 ft 180 kts 63°
2026-05-09 01:32 40.17701 12.39099 6999 ft 180 kts 63°
2026-05-09 01:33 40.18224 12.40583 7002 ft 180 kts 63°
2026-05-09 01:33 40.18745 12.42070 7008 ft 179 kts 62°
2026-05-09 01:33 40.19266 12.43552 6997 ft 179 kts 62°
2026-05-09 01:33 40.19785 12.45029 7008 ft 179 kts 62°
2026-05-09 01:34 40.20302 12.46503 7001 ft 179 kts 62°
2026-05-09 01:34 40.20821 12.47982 7005 ft 178 kts 62°
2026-05-09 01:34 40.21338 12.49457 7003 ft 178 kts 62°
2026-05-09 01:34 40.21854 12.50930 7001 ft 178 kts 62°
2026-05-09 01:35 40.22363 12.52384 6998 ft 178 kts 62°
2026-05-09 01:35 40.22879 12.53858 7006 ft 178 kts 63°
2026-05-09 01:35 40.23395 12.55334 7001 ft 178 kts 63°
2026-05-09 01:35 40.23911 12.56808 7001 ft 178 kts 63°
2026-05-09 01:36 40.24427 12.58285 6997 ft 178 kts 63°
2026-05-09 01:36 40.24941 12.59757 6999 ft 178 kts 63°
2026-05-09 01:36 40.25456 12.61232 7003 ft 178 kts 63°
2026-05-09 01:36 40.25973 12.62713 7003 ft 178 kts 63°
2026-05-09 01:37 40.26487 12.64188 6998 ft 178 kts 63°
2026-05-09 01:37 40.27003 12.65667 6998 ft 178 kts 63°
2026-05-09 01:37 40.27510 12.67124 7000 ft 178 kts 63°
2026-05-09 01:37 40.28024 12.68602 6997 ft 178 kts 63°
2026-05-09 01:38 40.28540 12.70083 7003 ft 178 kts 63°
2026-05-09 01:38 40.29054 12.71561 7003 ft 178 kts 63°
2026-05-09 01:38 40.29568 12.73040 7001 ft 178 kts 63°
2026-05-09 01:38 40.30083 12.74521 7001 ft 178 kts 63°
2026-05-09 01:39 40.30597 12.76000 6996 ft 178 kts 63°
2026-05-09 01:39 40.31111 12.77482 7001 ft 178 kts 63°
2026-05-09 01:39 40.31623 12.78956 6999 ft 178 kts 63°
2026-05-09 01:39 40.32133 12.80430 7000 ft 177 kts 63°
2026-05-09 01:40 40.32644 12.81901 7001 ft 177 kts 63°
2026-05-09 01:40 40.33146 12.83350 7001 ft 177 kts 62°
2026-05-09 01:40 40.33654 12.84820 6998 ft 177 kts 63°
2026-05-09 01:40 40.34162 12.86286 7000 ft 177 kts 63°
2026-05-09 01:41 40.34670 12.87755 7001 ft 177 kts 62°
2026-05-09 01:41 40.35176 12.89222 6997 ft 177 kts 63°
2026-05-09 01:41 40.35684 12.90689 7000 ft 177 kts 63°
2026-05-09 01:41 40.36191 12.92159 6999 ft 177 kts 63°
2026-05-09 01:42 40.36698 12.93626 6996 ft 177 kts 63°
2026-05-09 01:42 40.37204 12.95094 6998 ft 177 kts 63°
2026-05-09 01:42 40.37711 12.96565 6998 ft 177 kts 63°
2026-05-09 01:42 40.38217 12.98034 6995 ft 177 kts 63°
2026-05-09 01:43 40.38724 12.99505 6995 ft 177 kts 63°
2026-05-09 01:43 40.39229 13.00972 6999 ft 176 kts 63°
2026-05-09 01:43 40.39734 13.02440 6999 ft 177 kts 63°
2026-05-09 01:43 40.40240 13.03908 7001 ft 177 kts 63°
2026-05-09 01:44 40.40745 13.05379 6999 ft 177 kts 63°
2026-05-09 01:44 40.41244 13.06833 6998 ft 177 kts 63°
2026-05-09 01:44 40.41751 13.08307 6998 ft 177 kts 63°
2026-05-09 01:44 40.42256 13.09781 7000 ft 177 kts 63°
2026-05-09 01:45 40.42761 13.11254 7001 ft 177 kts 63°
2026-05-09 01:45 40.43267 13.12729 6996 ft 177 kts 63°
2026-05-09 01:45 40.43773 13.14205 7000 ft 177 kts 63°
2026-05-09 01:45 40.44279 13.15683 6997 ft 177 kts 63°
2026-05-09 01:46 40.44783 13.17156 6996 ft 177 kts 63°
2026-05-09 01:46 40.45288 13.18632 6996 ft 177 kts 63°
2026-05-09 01:46 40.45792 13.20105 6995 ft 177 kts 63°
2026-05-09 01:46 40.46291 13.21566 6998 ft 177 kts 63°
2026-05-09 01:47 40.46796 13.23043 6998 ft 177 kts 63°
2026-05-09 01:47 40.47300 13.24520 6995 ft 177 kts 63°
2026-05-09 01:47 40.47803 13.25995 6995 ft 177 kts 63°
2026-05-09 01:47 40.48307 13.27472 6994 ft 177 kts 63°
2026-05-09 01:48 40.48811 13.28949 7000 ft 177 kts 63°
2026-05-09 01:48 40.49314 13.30427 6993 ft 177 kts 63°
2026-05-09 01:48 40.49825 13.31927 6996 ft 177 kts 63°
2026-05-09 01:48 40.50322 13.33387 6994 ft 177 kts 63°
2026-05-09 01:49 40.50824 13.34865 6997 ft 177 kts 63°
2026-05-09 01:49 40.51328 13.36345 6997 ft 177 kts 63°
2026-05-09 01:49 40.51832 13.37828 6997 ft 177 kts 63°
2026-05-09 01:49 40.52333 13.39305 6996 ft 177 kts 63°
2026-05-09 01:50 40.52835 13.40783 6997 ft 177 kts 63°
2026-05-09 01:50 40.53338 13.42265 6997 ft 177 kts 63°
2026-05-09 01:50 40.53839 13.43745 6996 ft 177 kts 63°
2026-05-09 01:50 40.54341 13.45224 6996 ft 177 kts 63°
2026-05-09 01:51 40.54843 13.46705 6998 ft 177 kts 63°
2026-05-09 01:51 40.55343 13.48186 6998 ft 177 kts 63°
2026-05-09 01:51 40.55845 13.49667 6993 ft 177 kts 63°
2026-05-09 01:51 40.56341 13.51133 6992 ft 178 kts 63°
2026-05-09 01:52 40.56845 13.52625 6988 ft 179 kts 63°
2026-05-09 01:52 40.57351 13.54123 6990 ft 179 kts 63°
2026-05-09 01:52 40.57856 13.55619 6990 ft 179 kts 63°
2026-05-09 01:52 40.58362 13.57119 6992 ft 179 kts 63°
2026-05-09 01:53 40.58868 13.58619 6992 ft 179 kts 63°
2026-05-09 01:53 40.59375 13.60121 6992 ft 179 kts 63°
2026-05-09 01:53 40.59880 13.61622 6992 ft 179 kts 63°
2026-05-09 01:53 40.60399 13.63161 6826 ft 188 kts 64°
2026-05-09 01:54 40.60935 13.64751 6657 ft 192 kts 64°
2026-05-09 01:54 40.61477 13.66367 6493 ft 191 kts 64°
2026-05-09 01:54 40.61997 13.67927 6315 ft 182 kts 64°
2026-05-09 01:54 40.62501 13.69422 6132 ft 176 kts 64°
2026-05-09 01:55 40.62994 13.70886 5949 ft 173 kts 64°
2026-05-09 01:55 40.63472 13.72308 5773 ft 171 kts 64°
2026-05-09 01:55 40.63951 13.73737 5593 ft 170 kts 64°
2026-05-09 01:55 40.64429 13.75161 5415 ft 169 kts 64°
2026-05-09 01:56 40.64904 13.76580 5241 ft 169 kts 64°
2026-05-09 01:56 40.65379 13.77996 5066 ft 169 kts 64°
2026-05-09 01:56 40.65848 13.79397 4979 ft 163 kts 64°
2026-05-09 01:56 40.66302 13.80749 4975 ft 161 kts 64°
2026-05-09 01:57 40.66752 13.82096 4972 ft 161 kts 64°
2026-05-09 01:57 40.67204 13.83447 4972 ft 161 kts 64°
2026-05-09 01:57 40.67650 13.84783 4971 ft 161 kts 64°
2026-05-09 01:57 40.68101 13.86135 4972 ft 161 kts 64°
2026-05-09 01:58 40.68553 13.87488 4969 ft 162 kts 65°
2026-05-09 01:58 40.69005 13.88843 4969 ft 162 kts 64°
2026-05-09 01:58 40.69546 13.90141 4969 ft 161 kts 58°
2026-05-09 01:58 40.70103 13.91421 4968 ft 161 kts 59°
2026-05-09 01:59 40.70659 13.92705 4971 ft 161 kts 59°
2026-05-09 01:59 40.71213 13.93990 4970 ft 162 kts 58°
2026-05-09 01:59 40.71773 13.95284 4957 ft 163 kts 58°
2026-05-09 01:59 40.72336 13.96590 4780 ft 164 kts 58°
2026-05-09 02:00 40.72895 13.97881 4640 ft 160 kts 58°
2026-05-09 02:00 40.73443 13.99145 4512 ft 158 kts 58°
2026-05-09 02:00 40.73801 13.99973 4426 ft 156 kts 58°
2026-05-09 02:00 40.74340 14.01217 4298 ft 156 kts 58°
2026-05-09 02:01 40.74874 14.02455 4168 ft 155 kts 58°
2026-05-09 02:01 40.75581 14.04091 4000 ft 155 kts 58°
2026-05-09 02:01 40.75942 14.04924 3915 ft 155 kts 58°
2026-05-09 02:01 40.76753 14.06457 3748 ft 154 kts 53°
2026-05-09 02:02 40.77166 14.07238 3664 ft 154 kts 54°
2026-05-09 02:02 40.77775 14.08395 3540 ft 154 kts 54°
2026-05-09 02:02 40.78387 14.09553 3436 ft 153 kts 53°
2026-05-09 02:02 40.78998 14.10708 3315 ft 154 kts 54°
2026-05-09 02:03 40.79614 14.11864 3192 ft 154 kts 54°
2026-05-09 02:03 40.80228 14.13018 3065 ft 153 kts 54°
2026-05-09 02:03 40.80830 14.14152 2995 ft 146 kts 54°
2026-05-09 02:03 40.81382 14.15187 2995 ft 134 kts 53°
2026-05-09 02:04 40.81906 14.16173 2989 ft 129 kts 54°
2026-05-09 02:04 40.82428 14.17131 2910 ft 128 kts 53°
2026-05-09 02:04 40.82944 14.18076 2742 ft 127 kts 53°
2026-05-09 02:04 40.83460 14.19016 2476 ft 125 kts 53°
2026-05-09 02:05 40.83959 14.19916 2223 ft 112 kts 53°
2026-05-09 02:05 40.84396 14.20682 1958 ft 100 kts 53°
2026-05-09 02:05 40.84815 14.21400 1693 ft 97 kts 53°
2026-05-09 02:05 40.85212 14.22104 1490 ft 94 kts 53°
2026-05-09 02:06 40.85597 14.22771 1320 ft 89 kts 53°
2026-05-09 02:06 40.85948 14.23441 1174 ft 87 kts 59°
2026-05-09 02:06 40.86272 14.24138 1052 ft 90 kts 61°
2026-05-09 02:07 40.86937 14.25532 825 ft 88 kts 57°
2026-05-09 02:07 40.87255 14.26207 712 ft 88 kts 59°
2026-05-09 02:07 40.87578 14.26902 587 ft 89 kts 56°
2026-05-09 02:07 40.87907 14.27594 410 ft 88 kts 57°
2026-05-09 02:08 40.88221 14.28259 295 ft 79 kts 57°
2026-05-09 02:08 40.88446 14.28742 277 ft 30 kts 59°
2026-05-09 02:08 40.88543 14.28951 268 ft 18 kts 55°
2026-05-09 02:08 40.88576 14.29007 265 ft 10 kts 225°
2026-05-09 02:09 40.88521 14.28899 271 ft 17 kts 241°
2026-05-09 02:09 40.88470 14.28783 275 ft 15 kts 246°
2026-05-09 02:09 40.88499 14.28696 276 ft 12 kts 330°
2026-05-09 02:09 40.88587 14.28623 274 ft 15 kts 329°
2026-05-09 02:10 40.88654 14.28596 273 ft 14 kts 54°
2026-05-09 02:10 40.88703 14.28707 269 ft 15 kts 54°
2026-05-09 02:10 40.88755 14.28731 267 ft 5 kts 338°
2026-05-09 02:10 40.88789 14.28734 266 ft 9 kts 126°
2026-05-09 02:11 40.88784 14.28740 266 ft 0 kts 156°